Terug naar catalogus

SL-12 R/B(2)

ActiefHEO
NORAD 27404·ROCKET BODY·🇷🇺 Russia

Gelanceerd Mar 30, 2002 vanaf Baikonur Cosmodrome

Loading…

Volgende Passages (komende 24 uur)

TLE

VersSource: Space-Track

Epoch: Sep 14, 2026, 13:33 UTC

1 27404U 02016B   26257.56486948 -.00000127  00000-0  00000+0 0  9998
2 27404  25.4336 311.8628 6224966 186.0772 159.5923  2.06290510184357

Volg SL-12 R/B(2) in realtime met AllMySat

Download on the App Store